sat.trackr.live / text

‹ back to catalog

ONEWEB-0684

NORAD 56720 · 2023-068L

PAYLOAD ACTIVE UNKNOWN

§ Identity

Operator
Country
UK
Launch date
2023-05-20
Launch site
AFWTR
Launch vehicle
Mass (kg)
RCS (m²)

Purposes: comms

External: N2YO · Heavens-Above · Gunter

§ Orbital elements

Epoch: 2026-09-19T21:45:50.141376Z

Period
109.46 min
Inclination
87.8995°
Eccentricity
0.0001998
Mean motion
13.15549042 rev/d
Perigee alt
1,200.3 km
Apogee alt
1,203.3 km
Semi-major
7,579.9 km
B*
1.7185e-4
RAAN
240.3015°
Arg perigee
43.9518°
Mean anomaly
316.1771°
Rev number
16,170

§ Raw data

ONEWEB-06841 56720U 23068L   26262.90683034  .00000078  00000+0  17185-3 0  99992 56720  87.8995 240.3015 0001998  43.9518 316.1771 13.15549042161705

JSON: /api/v1/satellites/56720 · /tle

For live sub-satellite position, see the globe view (requires WebGL).

§ Visibility from observer

Set your observer location to see the next 7 days of passes ≥ 10°. The values pass through the URL so the page stays shareable.

No JS? Fill the form by hand. The geolocation button needs JavaScript.